User: anonymous   Login
Location: Unspecified
(0.0000°N, 0.0000°E)
Time: 15:54:50
(UTC+00:00)
Language:

POLYITAN 1 - Orbit

View from above orbital plane
View from above orbital plane
View from above satellite
View from above satellite

Ground track
Ground track

The orbit data is extracted from the following two-line orbital elements,

1 40042U 14033AJ  21336.76651736  .00001232  00000-0  13513-3 0  9991
2 40042  97.9543 268.9452 0014217 342.1480  17.9236 14.89527329404367
Epoch (UTC): 02 December 2021 18:23:47
Eccentricity: 0.0014217
inclination: 97.9543°
perigee height: 589 km
apogee height: 609 km
right ascension of ascending node: 268.9452°
argument of perigee: 342.1480°
revolutions per day: 14.89527329
mean anomaly at epoch: 17.9236°
orbit number at epoch: 40436

The dashed part of the orbit path shows where the satellite is in the earth's shadow,  

DLR